Temp
-3 -3 -3 -3 -3 -3 -3 -3 -3 -3 -3 -3 -3 -3 -3 -4 -4 -4 -4 -4 -4 -4 -5 -5 -5 -5 -5 -5 -6 -6 -6 -6 -6 -6 -6 -6 -6 -6 -6 -7 -7 -7 -7 -7 -7
-3 -3 -3 -3 -3 -3 -3 -3 -3 -3 -3 -3 -3 -3 -3 -3 -4 -4 -4 -4 -4 -4 -5 -5 -5 -5 -5 -7 -6 -6 -6 -6 -6 -6 -6 -6 -6 -7 -6 -7 -7 -7 -7 -7 -8
-3 -3 -3 -3 -3 -3 -3 -3 -3 -3 -3 -3 -3 -3 -3 -3 -4 -4 -5 -5 -5 -4 -5 -4 -5 -5 -5 -6 -6 -6 -6 -6 -6 -5 -6 -6 -6 -7 -6 -7 -7 -7 -7 -7 -8
-4 -3 -3 -3 -3 -4 -4 -4 -3 -3 -3 -3 -3 -3 -3 -4 -4 -5 -5 -5 -5 -5 -5 -4 -4 -5 -6 -5 -5 -6 -7 -6 -6 -6 -6 -6 -6 -6 -6 -7 -7 -7 -7 -7 -7
-4 -4 -4 -4 -4 -4 -4 -4 -4 -4 -4 -4 -4 -3 -3 -4 -4 -4 -5 -5 -5 -5 -5 -5 -4 -5 -6 -5 -6 -6 -6 -6 -6 -6 -6 -6 -6 -7 -7 -7 -7 -7 -7 -7 -8
-4 -4 -4 -4 -4 -4 -4 -4 -4 -4 -4 -4 -4 -4 -3 -4 -4 -4 -5 -6 -5 -6 -5 -5 -5 -5 -6 -6 -7 -7 -6 -6 -6 -6 -6 -6 -7 -7 -7 -7 -7 -7 -7 -7 -7
-4 -4 -4 -4 -4 -4 -4 -4 -4 -4 -4 -4 -4 -4 -4 -4 -4 -4 -5 -6 -6 -6 -6 -6 -6 -5 -6 -6 -6 -7 -6 -6 -6 -6 -6 -6 -5 -7 -7 -7 -7 -7 -7 -7 -8
-4 -4 -4 -4 -4 -4 -4 -4 -4 -4 -4 -4 -4 -4 -4 -5 -5 -5 -5 -6 -6 -6 -6 -6 -6 -6 -6 -6 -7 -7 -6 -6 -6 -6 -6 -7 -7 -6 -6 -7 -6 -7 -8 -8 -8
-4 -4 -4 -4 -4 -4 -4 -4 -4 -4 -5 -5 -4 -5 -4 -5 -5 -6 -6 -6 -6 -7 -6 -7 -6 -6 -6 -6 -7 -8 -7 -6 -6 -6 -6 -7 -7 -7 -6 -7 -7 -8 -8 -8 -8
-4 -4 -4 -4 -4 -4 -4 -5 -5 -5 -5 -5 -5 -5 -5 -5 -6 -6 -6 -6 -7 -7 -7 -7 -6 -6 -7 -7 -7 -6 -7 -7 -7 -6 -7 -7 -7 -7 -7 -7 -7 -7 -8 -8 -8
-5 -5 -5 -5 -5 -5 -5 -5 -5 -5 -5 -5 -5 -5 -6 -6 -6 -7 -7 -7 -7 -7 -7 -7 -7 -7 -8 -7 -7 -6 -8 -8 -7 -7 -7 -7 -7 -7 -7 -7 -8 -7 -7 -8 -8
-5 -5 -5 -5 -5 -5 -5 -5 -5 -5 -5 -5 -5 -6 -6 -6 -7 -7 -7 -7 -7 -7 -7 -8 -8 -9 -8 -7 -7 -7 -8 -8 -8 -7 -8 -8 -7 -7 -7 -7 -7 -7 -7 -7 -8
-5 -5 -5 -5 -5 -6 -6 -6 -6 -6 -6 -5 -6 -6 -6 -7 -7 -7 -7 -7 -7 -8 -8 -8 -9 -9 -8 -7 -8 -8 -8 -8 -8 -8 -7 -8 -7 -7 -7 -8 -8 -8 -7 -7 -7
-6 -6 -6 -6 -6 -6 -6 -6 -6 -6 -6 -6 -6 -6 -7 -7 -7 -7 -7 -8 -8 -8 -8 -8 -8 -9 -8 -8 -8 -8 -9 -9 -9 -9 -9 -8 -7 -8 -8 -8 -8 -8 -7 -7 -7
-6 -6 -6 -6 -6 -6 -6 -6 -6 -6 -7 -6 -7 -7 -8 -8 -8 -8 -8 -8 -8 -8 -9 -9 -9 -9 -9 -10 -10 -10 -10 -10 -10 -9 -9 -9 -9 -9 -8 -8 -7 -8 -8 -7 -7
-6 -7 -7 -7 -7 -7 -7 -6 -7 -7 -7 -7 -7 -8 -8 -8 -8 -9 -8 -9 -9 -9 -10 -10 -9 -9 -10 -10 -11 -11 -11 -11 -10 -10 -10 -10 -9 -9 -9 -9 -8 -7 -8 -8 -8
-6 -6 -7 -7 -6 -7 -7 -7 -7 -7 -7 -7 -7 -8 -8 -8 -9 -9 -9 -9 -9 -9 -10 -11 -11 -11 -11 -11 -11 -12 -12 -11 -10 -10 -10 -10 -9 -9 -9 -10 -9 -8 -8 -7 -7
-7 -6 -7 -7 -7 -7 -7 -7 -7 -8 -7 -8 -8 -8 -9 -10 -10 -10 -10 -10 -10 -11 -11 -11 -11 -11 -11 -12 -12 -12 -12 -11 -11 -10 -10 -9 -9 -9 -9 -10 -10 -9 -9 -8 -8
-7 -7 -7 -7 -7 -7 -7 -7 -8 -9 -8 -8 -9 -8 -9 -9 -10 -10 -11 -11 -11 -11 -11 -11 -11 -11 -11 -11 -11 -11 -11 -11 -11 -10 -10 -10 -9 -9 -9 -9 -9 -9 -9 -8 -8
-7 -7 -7 -8 -8 -8 -8 -8 -8 -9 -9 -9 -9 -9 -9 -9 -10 -11 -11 -11 -11 -11 -12 -11 -11 -11 -11 -11 -10 -11 -11 -11 -11 -11 -10 -10 -10 -11 -10 -10 -10 -9 -9 -9 -8
-7 -7 -7 -7 -8 -8 -8 -8 -9 -9 -10 -9 -9 -9 -10 -9 -9 -10 -11 -12 -12 -12 -12 -12 -11 -12 -11 -11 -11 -11 -11 -11 -11 -11 -10 -10 -10 -10 -10 -10 -9 -9 -9 -9 -8
-7 -7 -7 -7 -8 -8 -9 -9 -9 -10 -10 -10 -10 -10 -10 -10 -10 -10 -10 -11 -12 -11 -11 -11 -11 -10 -11 -11 -11 -11 -11 -11 -10 -10 -10 -10 -9 -9 -9 -10 -9 -9 -9 -9 -9
-7 -7 -8 -8 -8 -8 -9 -9 -9 -9 -10 -10 -10 -10 -11 -11 -10 -10 -10 -10 -11 -11 -11 -11 -11 -11 -11 -11 -11 -11 -11 -11 -11 -11 -10 -10 -9 -9 -10 -9 -9 -9 -9 -8 -8
-8 -8 -8 -8 -8 -8 -9 -9 -9 -10 -10 -10 -10 -11 -11 -11 -11 -11 -11 -11 -11 -11 -11 -11 -11 -11 -11 -12 -12 -11 -11 -11 -11 -11 -11 -10 -10 -10 -10 -9 -10 -10 -9 -8 -8
-8 -9 -8 -8 -8 -9 -9 -9 -10 -10 -10 -11 -11 -11 -11 -11 -11 -12 -11 -11 -11 -11 -11 -11 -11 -11 -12 -12 -11 -11 -11 -10 -11 -11 -11 -11 -10 -11 -10 -10 -10 -10 -9 -9 -8
-9 -9 -9 -9 -9 -9 -10 -10 -10 -10 -10 -11 -12 -12 -11 -11 -12 -12 -12 -12 -12 -12 -11 -11 -11 -11 -11 -11 -12 -11 -10 -11 -11 -11 -11 -11 -11 -11 -11 -10 -10 -10 -10 -10 -9
-10 -10 -10 -11 -10 -10 -10 -11 -11 -11 -11 -11 -12 -13 -13 -12 -12 -12 -12 -12 -12 -12 -12 -12 -11 -11 -11 -11 -11 -11 -10 -10 -11 -11 -11 -11 -11 -11 -11 -10 -10 -10 -10 -10 -10
Height
5875 5875 5875 5874 5874 5873 5873 5872 5871 5870 5869 5868 5868 5868 5868 5868 5868 5868 5868 5869 5870 5871 5871 5872 5872 5873 5872 5872 5872 5871 5872 5871 5870 5868 5872 5873 5875 5877 5876 5877 5879 5878 5878 5877 5877
5877 5877 5876 5876 5876 5875 5875 5874 5873 5871 5870 5869 5869 5868 5868 5867 5867 5867 5868 5868 5868 5871 5871 5871 5873 5873 5873 5873 5873 5872 5872 5871 5868 5867 5871 5872 5876 5878 5878 5877 5880 5880 5880 5879 5879
5879 5879 5878 5878 5878 5877 5876 5875 5874 5872 5871 5870 5869 5868 5867 5867 5866 5866 5866 5867 5866 5869 5870 5871 5873 5873 5875 5874 5873 5873 5873 5872 5871 5871 5872 5872 5875 5876 5877 5879 5880 5881 5880 5879 5879
5880 5880 5880 5880 5879 5878 5877 5876 5874 5873 5872 5871 5869 5868 5867 5866 5867 5865 5864 5864 5864 5866 5869 5871 5873 5875 5875 5875 5874 5873 5873 5873 5870 5870 5868 5870 5874 5876 5878 5880 5880 5881 5881 5879 5880
5881 5881 5881 5880 5879 5879 5877 5876 5875 5873 5872 5870 5869 5868 5867 5866 5864 5863 5862 5862 5862 5863 5867 5870 5872 5875 5875 5875 5874 5873 5874 5873 5872 5872 5868 5869 5873 5877 5879 5881 5880 5881 5880 5879 5881
5882 5881 5881 5880 5879 5878 5877 5876 5874 5873 5871 5869 5868 5866 5866 5865 5862 5861 5860 5860 5860 5861 5864 5868 5870 5872 5874 5874 5874 5874 5875 5874 5873 5872 5872 5875 5874 5877 5880 5880 5880 5882 5880 5880 5881
5882 5882 5881 5880 5879 5878 5877 5875 5874 5872 5870 5868 5866 5864 5863 5863 5861 5859 5858 5858 5858 5859 5862 5865 5868 5870 5872 5872 5874 5873 5874 5873 5874 5872 5873 5874 5874 5878 5878 5878 5879 5880 5880 5879 5881
5882 5881 5880 5879 5878 5877 5876 5875 5873 5871 5869 5866 5864 5862 5861 5859 5858 5857 5856 5855 5856 5856 5859 5861 5864 5867 5869 5869 5872 5873 5873 5872 5874 5875 5875 5874 5874 5876 5878 5880 5880 5880 5880 5880 5881
5880 5880 5879 5878 5877 5876 5875 5873 5871 5869 5867 5865 5862 5860 5858 5856 5854 5853 5853 5852 5852 5853 5856 5858 5861 5864 5867 5868 5870 5870 5872 5873 5873 5874 5875 5875 5875 5876 5877 5879 5880 5880 5880 5881 5881
5878 5877 5876 5876 5875 5874 5873 5871 5869 5867 5865 5863 5860 5858 5855 5853 5850 5850 5849 5849 5849 5851 5853 5855 5858 5861 5864 5865 5867 5869 5871 5873 5872 5873 5873 5875 5876 5876 5877 5877 5879 5880 5881 5882 5882
5875 5874 5873 5873 5872 5872 5870 5868 5868 5866 5863 5861 5858 5854 5851 5849 5848 5847 5846 5846 5846 5848 5849 5851 5855 5858 5860 5861 5865 5867 5870 5871 5872 5873 5874 5874 5875 5876 5877 5879 5880 5880 5881 5882 5883
5872 5871 5870 5869 5869 5868 5867 5865 5863 5862 5861 5857 5854 5851 5848 5846 5844 5844 5844 5844 5844 5845 5846 5848 5852 5854 5856 5859 5861 5863 5867 5869 5871 5872 5872 5873 5875 5876 5877 5877 5877 5879 5879 5880 5881
5869 5868 5867 5866 5865 5865 5864 5862 5860 5858 5858 5855 5851 5848 5846 5844 5842 5840 5840 5840 5840 5842 5843 5845 5848 5849 5852 5855 5858 5860 5864 5867 5868 5869 5870 5871 5873 5873 5876 5876 5876 5877 5879 5880 5878
5865 5863 5863 5862 5862 5861 5860 5858 5856 5855 5854 5853 5849 5846 5843 5840 5839 5837 5837 5838 5838 5839 5841 5843 5845 5847 5849 5853 5856 5859 5863 5864 5866 5868 5868 5870 5872 5871 5872 5873 5875 5876 5877 5878 5878
5860 5858 5858 5857 5857 5857 5856 5855 5853 5853 5851 5851 5845 5843 5840 5839 5837 5835 5835 5834 5835 5837 5840 5842 5843 5846 5848 5852 5853 5856 5859 5861 5862 5863 5865 5868 5870 5868 5870 5871 5872 5874 5875 5877 5877
5854 5853 5852 5853 5853 5852 5850 5850 5850 5850 5847 5846 5844 5840 5840 5837 5835 5834 5834 5834 5834 5835 5836 5839 5841 5845 5847 5849 5851 5854 5856 5858 5860 5861 5864 5864 5865 5867 5868 5868 5869 5870 5872 5873 5873
5846 5847 5844 5845 5847 5846 5844 5845 5846 5844 5844 5843 5842 5840 5837 5836 5835 5834 5833 5833 5834 5835 5836 5839 5841 5843 5845 5847 5850 5852 5852 5855 5857 5858 5862 5861 5861 5866 5865 5864 5864 5866 5867 5867 5869
5836 5837 5837 5836 5838 5837 5836 5837 5839 5839 5838 5838 5838 5837 5835 5834 5834 5833 5833 5833 5834 5835 5837 5839 5841 5842 5844 5847 5848 5850 5850 5851 5852 5855 5857 5857 5857 5859 5860 5860 5861 5861 5862 5864 5865
5828 5829 5829 5828 5828 5828 5828 5829 5832 5829 5833 5834 5833 5833 5834 5833 5833 5832 5832 5833 5834 5836 5840 5841 5842 5843 5844 5845 5846 5846 5846 5849 5850 5851 5852 5854 5854 5856 5857 5858 5859 5859 5858 5860 5861
5821 5821 5821 5821 5820 5821 5821 5824 5824 5821 5824 5827 5827 5828 5829 5830 5831 5830 5830 5833 5834 5835 5837 5840 5841 5842 5843 5844 5843 5843 5845 5846 5847 5848 5849 5850 5850 5851 5852 5853 5854 5855 5856 5856 5857
5815 5814 5813 5813 5813 5814 5815 5816 5816 5815 5815 5819 5820 5823 5822 5824 5826 5827 5829 5830 5831 5833 5835 5837 5839 5840 5841 5842 5842 5842 5842 5843 5845 5846 5846 5847 5849 5848 5848 5849 5849 5851 5852 5852 5852
5807 5806 5805 5805 5806 5806 5808 5808 5809 5808 5807 5809 5812 5816 5818 5819 5820 5823 5826 5827 5829 5832 5833 5834 5835 5836 5838 5839 5840 5841 5841 5842 5842 5844 5844 5843 5845 5845 5844 5844 5845 5844 5845 5847 5848
5798 5797 5798 5797 5796 5797 5799 5801 5801 5801 5799 5801 5804 5808 5812 5815 5817 5818 5821 5824 5825 5828 5830 5832 5832 5833 5834 5836 5837 5837 5839 5839 5840 5840 5841 5840 5842 5841 5840 5838 5837 5836 5838 5842 5844
5789 5787 5787 5787 5787 5788 5790 5791 5792 5792 5791 5792 5799 5802 5804 5808 5811 5813 5816 5819 5821 5823 5825 5827 5830 5831 5832 5832 5833 5833 5834 5836 5836 5837 5837 5837 5837 5836 5836 5834 5832 5832 5833 5835 5837
5778 5777 5775 5774 5776 5777 5779 5781 5781 5783 5784 5785 5791 5793 5796 5802 5804 5808 5810 5813 5815 5817 5820 5822 5824 5827 5828 5828 5828 5828 5828 5830 5831 5832 5833 5833 5833 5832 5831 5830 5829 5828 5828 5828 5830
5766 5765 5763 5762 5762 5764 5766 5768 5770 5772 5776 5777 5782 5782 5787 5795 5799 5802 5805 5807 5809 5812 5814 5816 5818 5821 5822 5822 5822 5822 5823 5824 5825 5826 5827 5827 5827 5828 5827 5827 5826 5824 5823 5823 5822
5752 5751 5751 5751 5749 5749 5750 5755 5756 5759 5763 5766 5769 5773 5779 5784 5788 5793 5795 5799 5804 5805 5807 5809 5812 5815 5817 5817 5816 5817 5818 5819 5820 5821 5823 5822 5823 5822 5823 5823 5823 5820 5819 5819 5820
Wind_Speed
6 7 8 9 9 9 10 11 11 10 8 6 4 6 8 9 9 9 8 6 5 2 2 2 1 1 2 3 4 7 8 8 12 16 12 11 6 5 5 7 7 6 7 8 9
9 9 8 9 9 10 11 11 11 12 12 11 10 8 7 9 10 11 11 7 9 3 4 5 3 2 2 6 1 4 5 10 10 10 12 5 4 2 2 7 5 6 6 10 9
8 8 7 7 8 9 9 9 8 9 10 10 12 12 12 11 10 10 11 9 12 7 6 6 5 4 3 4 3 4 3 4 7 3 0 2 6 10 3 6 8 3 6 10 8
6 5 4 4 6 7 9 9 8 9 10 11 12 13 13 13 10 9 10 12 14 12 9 7 4 3 4 3 1 2 2 3 6 11 13 10 15 12 11 10 8 4 5 10 10
3 3 3 3 5 8 9 9 10 10 12 13 14 14 14 14 13 12 11 13 15 15 12 7 4 2 4 4 4 5 3 5 6 11 13 16 18 13 13 9 10 5 5 9 10
3 3 4 5 6 8 9 10 10 12 14 16 17 17 16 16 15 13 13 14 15 15 14 7 7 4 4 6 9 2 5 8 8 10 12 6 12 14 6 3 7 1 6 10 6
2 4 5 6 7 8 9 10 12 14 17 19 19 20 19 18 16 15 14 15 16 17 13 9 8 6 4 7 5 6 4 7 9 10 7 8 7 12 6 9 7 7 7 7 4
5 6 7 7 7 8 10 11 12 16 18 20 20 21 21 20 18 17 16 15 16 17 15 13 10 10 8 9 7 8 6 5 2 6 5 6 8 8 8 5 14 9 8 5 8
10 10 9 9 9 10 10 11 12 16 19 21 22 23 21 21 19 17 16 16 16 16 15 16 14 11 12 12 11 11 11 7 5 5 4 6 5 6 7 7 8 9 7 5 8
14 14 14 14 14 13 10 10 12 15 18 22 24 24 22 19 19 16 15 15 16 16 15 17 15 13 15 14 14 13 10 8 8 5 7 6 6 6 3 5 10 2 12 10 7
17 17 17 17 17 16 13 12 13 16 18 22 24 24 22 21 18 14 14 15 15 16 15 14 13 11 14 17 15 16 13 14 6 11 10 8 7 6 5 5 7 9 6 10 6
18 19 20 19 18 17 16 16 15 15 17 22 25 25 23 20 18 16 15 14 13 15 16 15 10 13 17 17 16 18 18 16 16 13 15 7 6 5 2 2 0 1 5 8 11
21 21 21 20 19 18 17 17 17 16 16 21 25 25 22 19 17 16 15 13 11 13 15 17 18 20 20 20 18 19 16 15 14 17 16 13 9 12 8 3 1 4 5 7 11
23 22 22 21 20 19 18 18 18 17 17 20 22 23 22 20 17 14 12 9 10 11 13 15 17 19 21 18 15 14 13 12 12 16 16 14 11 9 7 5 7 7 6 3 7
24 24 22 21 20 18 19 19 19 19 19 20 21 21 21 15 15 13 10 7 10 11 12 12 14 16 18 14 17 14 15 17 17 19 19 17 17 15 14 11 9 9 9 6 3
27 27 28 26 23 22 23 22 21 21 21 20 18 19 19 15 10 9 8 8 10 14 13 12 14 14 16 19 19 18 17 18 20 21 17 20 21 17 20 20 18 16 11 12 7
36 33 34 32 29 28 30 28 26 23 23 23 18 15 15 12 7 7 7 9 10 11 12 12 12 14 15 18 21 20 22 19 17 22 20 22 24 20 16 18 23 24 20 17 11
30 30 30 34 33 33 34 34 31 27 26 23 19 16 12 12 7 6 7 7 10 12 16 15 13 14 12 10 18 23 26 22 18 15 14 17 18 14 17 19 20 24 25 19 20
33 34 31 30 27 29 34 34 28 31 27 22 21 19 13 13 10 6 8 10 11 12 13 12 14 13 15 16 18 21 25 21 18 16 13 14 16 13 11 18 20 22 25 25 21
27 27 28 29 29 30 28 24 27 30 27 24 23 21 17 16 13 12 8 9 10 10 11 14 15 13 10 11 12 15 14 21 19 23 19 13 11 13 18 16 17 20 22 25 25
27 28 28 28 28 27 24 22 24 29 30 28 26 24 23 21 19 15 14 12 10 13 15 14 18 14 10 8 9 7 10 13 17 16 14 12 10 13 17 20 21 21 19 18 25
30 31 30 29 29 29 26 27 28 32 35 34 32 29 28 25 22 20 17 18 15 12 16 14 10 12 14 11 10 7 9 13 15 14 15 17 12 16 15 15 19 25 23 22 16
34 33 31 30 29 29 27 26 29 34 40 41 38 35 32 29 27 25 22 19 18 17 14 13 10 10 11 12 14 13 11 13 15 15 16 17 18 16 14 19 17 22 25 22 20
34 36 34 32 31 29 29 28 30 33 40 44 39 38 38 35 31 30 26 24 22 19 18 16 14 13 12 15 17 20 19 15 16 15 16 17 19 15 16 20 14 11 14 17 23
35 35 38 38 34 32 30 29 32 36 39 44 45 42 42 36 37 30 32 32 28 25 24 23 20 15 17 19 18 20 21 17 17 18 18 17 14 14 15 14 10 12 14 14 11
39 38 37 39 39 36 34 34 35 36 39 42 47 50 47 41 39 36 37 38 34 31 28 26 24 22 20 21 25 25 20 17 18 19 20 22 21 16 14 10 11 12 15 15 10
41 39 38 37 38 40 40 35 38 39 40 43 48 56 50 48 43 41 38 41 38 35 33 32 27 23 21 20 22 21 16 15 18 18 19 21 19 16 17 13 13 14 13 10 9
Wind_Direction
58 75 73 60 51 50 53 50 44 39 31 19 326 284 270 266 262 266 284 290 296 279 250 223 293 6 342 61 46 53 43 15 309 227 240 164 96 55 24 72 66 74 97 104 118
74 70 69 68 61 56 50 47 42 33 26 17 4 346 315 289 273 264 268 275 278 252 249 229 218 262 39 65 201 59 43 14 54 113 144 104 148 220 69 100 81 58 111 113 126
75 70 67 71 67 51 41 28 29 23 14 7 358 348 337 326 305 284 277 260 263 258 244 248 212 230 164 235 150 1 30 40 48 46 329 111 155 162 120 105 129 74 120 117 126
71 58 59 56 27 23 14 14 5 2 356 353 349 343 339 329 310 294 278 261 259 258 248 240 250 221 218 214 352 43 173 107 59 45 4 184 163 165 117 121 120 115 122 111 102
38 20 2 348 347 356 358 357 357 356 354 350 344 339 335 329 315 301 280 268 261 262 253 248 249 178 235 203 161 355 182 108 46 49 45 172 170 128 135 154 95 75 105 118 121
23 12 349 335 337 340 340 345 347 345 346 343 339 332 328 326 316 301 281 267 265 263 262 258 245 235 162 173 189 149 323 81 54 62 77 160 127 121 100 140 176 133 122 125 98
347 331 328 329 332 340 344 343 339 338 339 338 334 327 325 320 315 304 288 269 263 262 270 261 241 226 201 216 217 176 208 99 72 89 93 107 120 153 58 132 171 156 126 138 146
280 301 310 310 318 321 331 339 340 340 339 335 331 325 323 318 312 301 289 275 259 258 260 251 238 225 205 221 176 156 163 141 171 117 75 94 105 129 79 102 147 138 123 136 145
282 277 281 287 287 301 317 324 328 333 333 333 329 325 319 313 309 300 285 269 258 251 251 248 239 226 215 212 206 180 191 202 194 159 123 96 92 116 173 137 141 173 176 122 159
286 284 278 277 279 279 283 298 313 323 333 334 332 327 320 315 307 298 291 275 261 257 244 242 244 236 211 214 212 202 202 205 213 210 181 145 107 98 174 181 154 201 156 139 159
286 286 284 282 282 286 281 284 300 312 328 334 332 329 323 318 311 306 296 281 263 249 242 239 239 241 212 218 214 219 207 197 209 198 187 145 127 102 103 131 144 126 164 177 185
293 290 289 287 286 287 286 279 287 306 322 328 330 329 323 320 313 305 289 268 260 250 236 232 219 220 226 222 213 217 210 221 235 235 202 193 196 192 141 113 267 186 153 181 188
293 291 290 288 287 286 285 281 284 297 309 318 326 328 327 318 310 295 280 256 246 236 223 217 207 214 225 229 213 221 216 218 228 227 231 230 242 214 224 215 194 250 233 181 190
289 287 286 285 285 285 281 280 283 293 303 312 321 324 325 318 305 292 275 256 250 238 230 225 219 218 232 230 237 237 226 230 231 233 232 242 244 225 205 226 239 273 268 221 218
285 286 284 284 286 286 280 280 284 291 295 307 314 319 322 309 295 288 274 252 230 206 200 216 218 215 221 237 238 240 233 229 228 235 225 233 242 253 248 256 254 262 275 277 292
282 281 281 280 281 281 279 278 281 285 290 294 303 311 313 307 295 286 262 221 203 200 193 200 211 211 213 217 227 239 241 236 238 233 216 240 243 241 255 260 262 253 247 249 265
278 276 277 276 277 275 275 275 275 276 282 286 293 298 303 294 286 268 231 193 191 185 181 187 186 194 211 227 225 237 250 247 237 233 229 246 253 256 248 248 250 249 248 247 240
282 276 278 279 272 268 269 271 273 271 269 275 276 279 286 274 276 221 199 166 165 171 174 177 181 189 193 208 239 246 252 257 256 250 233 244 266 268 246 247 246 247 251 250 256
274 276 277 277 277 268 267 269 270 268 269 265 263 267 272 253 236 228 205 185 183 181 191 196 191 202 207 226 243 243 247 253 257 261 266 267 277 282 260 255 255 260 265 254 244
279 282 277 275 275 272 272 271 261 265 264 258 255 258 263 256 236 232 233 211 205 213 211 217 222 214 225 246 240 234 241 241 250 258 271 286 293 284 266 263 267 259 263 269 253
281 282 280 277 273 271 270 264 249 250 256 256 253 251 247 256 249 231 228 214 215 212 215 224 224 227 217 233 240 235 237 237 240 248 263 271 270 273 272 261 262 271 267 265 268
285 283 280 277 274 269 263 253 249 239 243 242 244 246 248 256 257 259 237 224 223 219 229 231 243 229 228 236 243 254 261 255 253 261 268 267 271 288 297 299 275 266 264 263 269
289 285 280 276 272 270 264 256 251 250 243 244 240 243 244 248 256 259 265 244 236 228 226 238 263 265 266 252 257 265 256 252 261 272 291 275 283 291 277 292 299 258 259 260 255
290 285 280 276 272 267 264 256 248 244 248 251 243 243 242 244 251 253 259 256 248 247 242 240 243 260 266 269 271 280 278 258 260 270 282 290 296 289 286 299 302 278 269 269 259
290 284 282 279 272 268 260 256 250 244 245 245 241 239 240 242 250 247 253 257 250 247 250 252 254 257 259 268 269 288 292 271 261 265 271 284 300 307 295 295 289 274 284 280 271
288 284 279 277 275 268 261 254 249 245 243 242 235 237 236 234 247 245 247 251 252 253 256 262 268 269 272 275 277 279 275 269 272 275 278 284 289 294 307 281 272 274 272 281 294
286 281 278 276 273 272 270 256 247 243 239 235 234 232 234 237 238 245 240 238 245 253 257 261 261 261 262 267 263 266 273 271 270 270 274 276 287 285 273 285 280 282 266 262 275